Weather History for Crestview, FL

Change the Weather History Date:

Saturday, December 7, 2013

  Actual Average Record
Temperature  
Mean Temperature 58 °F -  
Max Temperature 68 °F - - ()
Min Temperature 48 °F - - ()
Degree Days  
Heating Degree Days 7    
Growing Degree Days 8 (Base 50)    
Moisture  
Dew Point 47 °F    
Average Humidity 78    
Maximum Humidity 88    
Minimum Humidity 66    
Precipitation  
Precipitation 0.00 in - - ()
Sea Level Pressure  
Sea Level Pressure 30.21 in    
Wind  
Wind Speed 10 mph (North)    
Max Wind Speed 14 mph    
Max Gust Speed -    
Visibility 9 miles    
Events      
T = Trace of Precipitation, MM = Missing Value Source: NWS Daily Summary

Daily Weather History Graph

Daily Weather History Graph

Search for Another Location

Airport:

Trip Planner

Search our weather history database for the weather conditions in past years. The results will help you decide how hot, cold, wet, or windy it might be!

Date:

Astronomy

Dec. 07, 2013 Rise Set
Actual Time 6:30 AM CST 4:44 PM CST
Civil Twilight 6:04 AM CST 5:11 PM CST
Nautical Twilight 5:34 AM CST 5:41 PM CST
Astronomical Twilight 5:04 AM CST 6:10 PM CST
Moon 10:29 AM CST (12/7) 10:09 PM CST (12/7)
Length of Visible Light 11h 06m
Length of Day
10h 14m
Waxing Crescent, 29% of the Moon is Illuminated
Dec 7
Waxing Crescent
Dec 9
First Quarter
Dec 17
Full
Dec 25
Last Quarter
Jan 1
New

Hourly Weather History & Observations

Time (CST) Temp. Dew Point Humidity Pressure Visibility Wind Dir Wind Speed Gust Speed Precip Events Conditions
12:38 AM 68.0 °F 62.6 °F 83% 30.11 in 10.0 mi NW 13.8 mph - N/A   Mostly Cloudy
12:48 AM 66.2 °F 60.8 °F 83% 30.12 in 10.0 mi NW 11.5 mph - N/A   Mostly Cloudy
12:53 AM 66.2 °F 60.8 °F 83% 30.12 in 10.0 mi NW 11.5 mph - N/A   Mostly Cloudy
12:58 AM 64.4 °F 60.8 °F 88% 30.13 in 10.0 mi NW 12.7 mph - N/A   Scattered Clouds
1:38 AM 62.6 °F 59.0 °F 88% 30.13 in 10.0 mi NNW 3.5 mph - N/A   Mostly Cloudy
1:53 AM 62.6 °F 59.0 °F 88% 30.13 in 10.0 mi NNW 5.8 mph - N/A   Mostly Cloudy
1:58 AM 63.0 °F 58.5 °F 85% 30.14 in 10.0 mi NNW 6.9 mph - N/A   Overcast
2:08 AM 62.6 °F 57.2 °F 82% 30.13 in 10.0 mi NNW 6.9 mph - N/A   Overcast
2:35 AM 62.6 °F 57.2 °F 82% 30.14 in 10.0 mi NNW 6.9 mph - N/A   Overcast
2:58 AM 61.5 °F 56.8 °F 85% 30.14 in 10.0 mi NNW 8.1 mph - N/A   Overcast
3:58 AM 57.7 °F 53.6 °F 86% 30.15 in 9.0 mi NNW 8.1 mph - N/A   Overcast
4:03 AM 57.2 °F 53.6 °F 88% 30.14 in 9.0 mi NNW 8.1 mph - N/A   Overcast
4:53 AM 53.6 °F 48.2 °F 82% 30.17 in 10.0 mi North 12.7 mph - N/A   Overcast
4:58 AM 53.4 °F 47.8 °F 81% 30.18 in 10.0 mi North 12.7 mph - N/A   Overcast
5:58 AM 51.3 °F 45.3 °F 80% 30.21 in 10.0 mi NNW 10.4 mph - N/A   Overcast
6:58 AM 49.1 °F 43.0 °F 79% 30.23 in 10.0 mi NNW 10.4 mph - N/A   Overcast
7:58 AM 50.0 °F 43.0 °F 77% 30.25 in 10.0 mi North 13.8 mph - N/A   Overcast
8:58 AM 49.5 °F 42.3 °F 76% 30.27 in 10.0 mi NNE 9.2 mph - N/A   Overcast
9:33 AM 50.0 °F 42.8 °F 76% 30.26 in 10.0 mi North 9.2 mph - N/A   Overcast
9:48 AM 51.8 °F 41.0 °F 67% 30.26 in 10.0 mi North 10.4 mph - N/A   Overcast
9:58 AM 50.9 °F 41.7 °F 71% 30.27 in 10.0 mi North 8.1 mph - N/A   Overcast
10:18 AM 50.0 °F 41.0 °F 71% 30.26 in 10.0 mi North 8.1 mph - N/A   Overcast
10:53 AM 50.0 °F 41.0 °F 71% 30.26 in 10.0 mi North 9.2 mph - N/A   Overcast
10:58 AM 50.7 °F 41.4 °F 70% 30.27 in 10.0 mi North 9.2 mph - N/A   Overcast
11:48 AM 51.8 °F 41.0 °F 67% 30.24 in 10.0 mi North 10.4 mph - N/A   Overcast
11:58 AM 52.2 °F 41.2 °F 66% 30.24 in 10.0 mi North 12.7 mph - N/A   Overcast
12:58 PM 51.3 °F 40.8 °F 67% 30.22 in 10.0 mi NNE 10.4 mph - N/A   Overcast
1:58 PM 51.1 °F 40.6 °F 67% 30.22 in 10.0 mi North 9.2 mph - N/A   Overcast
2:58 PM 50.5 °F 40.3 °F 68% 30.22 in 10.0 mi North 12.7 mph - N/A   Overcast
3:13 PM 50.0 °F 41.0 °F 71% 30.21 in 10.0 mi North 12.7 mph - N/A   Overcast
3:58 PM 49.3 °F 40.3 °F 71% 30.22 in 10.0 mi North 10.4 mph - N/A   Overcast
4:58 PM 48.9 °F 40.5 °F 73% 30.23 in 10.0 mi North 10.4 mph - N/A   Overcast
5:58 PM 48.6 °F 40.6 °F 74% 30.24 in 10.0 mi NNE 8.1 mph - N/A   Overcast
6:53 PM 48.2 °F 41.0 °F 76% 30.23 in 10.0 mi North 9.2 mph - N/A   Overcast
6:58 PM 48.7 °F 41.2 °F 75% 30.24 in 10.0 mi North 9.2 mph - N/A   Overcast
7:30 PM 48.2 °F 41.0 °F 76% 30.24 in 10.0 mi North 8.1 mph - N/A   Overcast
7:58 PM 48.6 °F 42.1 °F 78% 30.25 in 10.0 mi North 8.1 mph - N/A   Overcast
8:58 PM 48.0 °F 42.8 °F 82% 30.24 in 6.0 mi North 5.8 mph - N/A   Haze
9:08 PM 48.2 °F 42.8 °F 82% 30.23 in 6.0 mi NNE 5.8 mph - N/A   Haze
9:23 PM 48.2 °F 42.8 °F 82% 30.23 in 6.0 mi North 5.8 mph - N/A   Haze
9:58 PM 48.4 °F 43.5 °F 83% 30.24 in 8.0 mi NNE 3.5 mph - N/A   Overcast
10:53 PM 48.2 °F 44.6 °F 87% 30.23 in 4.0 mi NNE 5.8 mph - N/A   Haze
10:58 PM 48.6 °F 44.2 °F 85% 30.24 in 4.0 mi NNE 5.8 mph - N/A   Haze
11:28 PM 48.2 °F 44.6 °F 87% 30.23 in 3.0 mi North 4.6 mph - N/A   Overcast
11:58 PM 48.7 °F 45.0 °F 87% 30.23 in 3.0 mi North 5.8 mph - N/A   Overcast